SCF353B ZSZS-ZGGG

Flight info

Callsign SCF353B
Flight time N/A
Altitude 32100
Route HSN W67 BK W58 SHZ G204 ELNEX A599 PLT W19 OLPAB OLPAB9
Aircraft A320/M-SDE3FGHIRWY/LB1

Departure

Time 2026-04-25 10:00
Airport Zhoushan Putuoshan International Airport (ZSZS)

Arrival

Time N/A
Airport Guangzhou Baiyun International Airport (ZGGG)
Time Latitude Longitude Altitude Speed Heading
2026-04-25 09:43 29.93525 122.35890 9 ft 0 kts 264°
2026-04-25 09:53 29.93526 122.35910 9 ft 2 kts 264°
2026-04-25 09:53 29.93527 122.35929 9 ft 2 kts 251°
2026-04-25 09:53 29.93537 122.35944 12 ft 2 kts 179°
2026-04-25 09:54 29.93543 122.35943 11 ft 0 kts 172°
2026-04-25 09:56 29.93528 122.35946 11 ft 10 kts 172°
2026-04-25 09:56 29.93460 122.36016 9 ft 16 kts 88°
2026-04-25 09:56 29.93471 122.36149 7 ft 18 kts 84°
2026-04-25 09:56 29.93384 122.36225 6 ft 19 kts 175°
2026-04-25 09:57 29.93249 122.36239 6 ft 20 kts 175°
2026-04-25 09:57 29.93110 122.36254 7 ft 20 kts 174°
2026-04-25 09:57 29.92964 122.36270 7 ft 22 kts 175°
2026-04-25 09:57 29.92813 122.36285 9 ft 22 kts 175°
2026-04-25 09:58 29.92661 122.36301 10 ft 22 kts 175°
2026-04-25 09:58 29.92505 122.36314 10 ft 22 kts 180°
2026-04-25 09:58 29.92373 122.36299 10 ft 17 kts 189°
2026-04-25 09:58 29.92353 122.36344 11 ft 10 kts 358°
2026-04-25 09:59 29.92411 122.36326 10 ft 7 kts 354°
2026-04-25 09:59 29.92421 122.36325 10 ft 0 kts 355°
2026-04-25 09:59 29.92511 122.36317 11 ft 42 kts 355°
2026-04-25 09:59 29.93054 122.36260 7 ft 111 kts 355°
2026-04-25 10:00 29.94008 122.36169 18 ft 161 kts 357°
2026-04-25 10:00 29.95164 122.36077 513 ft 168 kts 356°
2026-04-25 10:00 29.96345 122.35952 1148 ft 172 kts 356°
2026-04-25 10:00 29.97566 122.35817 1678 ft 184 kts 356°
2026-04-25 10:01 29.98908 122.35676 1950 ft 205 kts 357°
2026-04-25 10:01 30.00425 122.35498 2170 ft 233 kts 351°
2026-04-25 10:01 30.01921 122.34614 2630 ft 256 kts 313°
2026-04-25 10:01 30.02702 122.32749 3337 ft 266 kts 276°
2026-04-25 10:02 30.02513 122.30663 4239 ft 266 kts 258°
2026-04-25 10:02 30.02101 122.28570 5264 ft 263 kts 258°
2026-04-25 10:02 30.01688 122.26532 6150 ft 265 kts 258°
2026-04-25 10:02 30.01269 122.24456 6988 ft 267 kts 258°
2026-04-25 10:03 30.00849 122.22351 7763 ft 271 kts 258°
2026-04-25 10:03 30.00425 122.20208 8523 ft 276 kts 258°
2026-04-25 10:03 29.99996 122.18030 9283 ft 281 kts 258°
2026-04-25 10:03 29.99561 122.15815 10021 ft 286 kts 257°
2026-04-25 10:04 29.99111 122.13526 10430 ft 303 kts 257°
2026-04-25 10:04 29.98629 122.11065 10613 ft 326 kts 257°
2026-04-25 10:04 29.98113 122.08430 10875 ft 344 kts 257°
2026-04-25 10:04 29.97581 122.05714 11038 ft 348 kts 257°
2026-04-25 10:05 29.97045 122.02988 11117 ft 352 kts 257°
2026-04-25 10:05 29.96501 122.00222 11826 ft 353 kts 257°
2026-04-25 10:05 29.95958 121.97459 12582 ft 354 kts 257°
2026-04-25 10:05 29.95412 121.94681 13310 ft 356 kts 257°
2026-04-25 10:06 29.94863 121.91890 14007 ft 358 kts 257°
2026-04-25 10:06 29.94310 121.89079 14625 ft 360 kts 257°
2026-04-25 10:06 29.93754 121.86256 15249 ft 362 kts 257°
2026-04-25 10:06 29.93192 121.83412 15833 ft 365 kts 257°
2026-04-25 10:07 29.92628 121.80556 16430 ft 367 kts 257°
2026-04-25 10:07 29.92058 121.77679 17008 ft 370 kts 257°
2026-04-25 10:07 29.91482 121.74782 17568 ft 372 kts 257°
2026-04-25 10:07 29.90979 121.71852 18129 ft 375 kts 262°
2026-04-25 10:08 29.90833 121.68839 18637 ft 377 kts 266°
2026-04-25 10:08 29.90737 121.65812 19151 ft 379 kts 266°
2026-04-25 10:08 29.90638 121.62778 19667 ft 380 kts 266°
2026-04-25 10:08 29.90537 121.59735 20178 ft 381 kts 266°
2026-04-25 10:09 29.90434 121.56679 20680 ft 382 kts 266°
2026-04-25 10:09 29.90330 121.53663 21175 ft 382 kts 266°
2026-04-25 10:09 29.90223 121.50593 21624 ft 385 kts 266°
2026-04-25 10:09 29.90115 121.47488 21954 ft 390 kts 266°
2026-04-25 10:10 29.90005 121.44341 22373 ft 393 kts 266°
2026-04-25 10:10 29.89894 121.41186 22816 ft 395 kts 266°
2026-04-25 10:10 29.89780 121.38016 23260 ft 397 kts 265°
2026-04-25 10:10 29.89385 121.34873 23674 ft 398 kts 256°
2026-04-25 10:11 29.88494 121.31851 24034 ft 399 kts 246°
2026-04-25 10:11 29.87136 121.29065 24425 ft 400 kts 238°
2026-04-25 10:11 29.85598 121.26390 24854 ft 400 kts 238°
2026-04-25 10:11 29.84064 121.23711 25252 ft 401 kts 238°
2026-04-25 10:12 29.82530 121.21014 25520 ft 404 kts 238°
2026-04-25 10:12 29.80986 121.18298 25881 ft 406 kts 238°
2026-04-25 10:12 29.77890 121.12867 26618 ft 406 kts 238°
2026-04-25 10:13 29.76338 121.10153 27005 ft 406 kts 238°
2026-04-25 10:13 29.74785 121.07438 27346 ft 406 kts 238°
2026-04-25 10:13 29.73232 121.04726 27679 ft 405 kts 238°
2026-04-25 10:13 29.71691 121.02035 28204 ft 401 kts 238°
2026-04-25 10:14 29.70159 120.99363 28676 ft 399 kts 238°
2026-04-25 10:14 29.68632 120.96699 29016 ft 399 kts 238°
2026-04-25 10:14 29.67106 120.94033 29303 ft 400 kts 239°
2026-04-25 10:14 29.65574 120.91358 29652 ft 400 kts 238°
2026-04-25 10:15 29.64042 120.88691 30113 ft 398 kts 238°
2026-04-25 10:15 29.62522 120.86049 30500 ft 395 kts 239°
2026-04-25 10:15 29.61231 120.83283 30828 ft 392 kts 248°
2026-04-25 10:15 29.60422 120.80301 31128 ft 392 kts 257°
2026-04-25 10:16 29.60121 120.77193 31418 ft 393 kts 267°
2026-04-25 10:16 29.60203 120.74050 31728 ft 393 kts 269°
2026-04-25 10:16 29.60298 120.70913 32038 ft 393 kts 269°
2026-04-25 10:17 29.60461 120.64701 32151 ft 391 kts 268°
2026-04-25 10:17 29.60614 120.58468 32148 ft 390 kts 268°
2026-04-25 10:18 29.60766 120.52262 32146 ft 387 kts 268°
2026-04-25 10:18 29.60920 120.46077 32151 ft 388 kts 268°
2026-04-25 10:19 29.61072 120.39881 32159 ft 388 kts 268°
2026-04-25 10:19 29.61219 120.33689 32163 ft 388 kts 268°
2026-04-25 10:20 29.61359 120.27497 32150 ft 388 kts 268°
2026-04-25 10:20 29.61502 120.21300 32144 ft 388 kts 268°
2026-04-25 10:21 29.61646 120.15101 32141 ft 388 kts 268°
2026-04-25 10:21 29.61795 120.08900 32164 ft 388 kts 269°
2026-04-25 10:22 29.61941 120.02688 32151 ft 389 kts 268°
2026-04-25 10:22 29.62081 119.96470 32141 ft 389 kts 269°
2026-04-25 10:23 29.62221 119.90241 32127 ft 390 kts 269°
2026-04-25 10:23 29.62360 119.84057 32141 ft 390 kts 269°
2026-04-25 10:24 29.62497 119.77809 32133 ft 392 kts 269°
2026-04-25 10:24 29.62624 119.71547 32125 ft 393 kts 269°
2026-04-25 10:25 29.62748 119.65247 32123 ft 394 kts 269°
2026-04-25 10:25 29.62901 119.58951 32116 ft 394 kts 269°
2026-04-25 10:26 29.62888 119.52671 32134 ft 392 kts 261°
2026-04-25 10:26 29.62237 119.49628 32070 ft 393 kts 250°
2026-04-25 10:26 29.61064 119.46794 32119 ft 395 kts 241°
2026-04-25 10:27 29.57581 119.41880 32117 ft 397 kts 232°
2026-04-25 10:27 29.53873 119.37154 32129 ft 398 kts 232°
2026-04-25 10:28 29.50158 119.32434 32139 ft 398 kts 232°
2026-04-25 10:28 29.46449 119.27715 32151 ft 398 kts 232°
2026-04-25 10:29 29.42739 119.23002 32103 ft 398 kts 232°
2026-04-25 10:29 29.39028 119.18291 32125 ft 398 kts 232°
2026-04-25 10:30 29.35321 119.13589 32133 ft 397 kts 232°
2026-04-25 10:30 29.31615 119.08904 32131 ft 397 kts 232°
2026-04-25 10:31 29.27905 119.04223 32133 ft 397 kts 232°
2026-04-25 10:31 29.24217 118.99575 32133 ft 397 kts 232°
2026-04-25 10:32 29.20502 118.94916 32124 ft 396 kts 232°
2026-04-25 10:32 29.16794 118.90258 32123 ft 396 kts 233°
2026-04-25 10:33 29.13083 118.85595 32127 ft 396 kts 233°
2026-04-25 10:33 29.09377 118.80942 32123 ft 396 kts 232°
2026-04-25 10:34 29.05661 118.76298 32119 ft 396 kts 232°
2026-04-25 10:34 29.01942 118.71652 32122 ft 397 kts 232°
2026-04-25 10:35 28.98217 118.66997 32155 ft 396 kts 232°
2026-04-25 10:35 28.94491 118.62350 32158 ft 396 kts 233°
2026-04-25 10:36 28.90773 118.57708 32142 ft 396 kts 233°
2026-04-25 10:36 28.87046 118.53063 32122 ft 397 kts 232°
2026-04-25 10:37 28.83307 118.48416 32089 ft 395 kts 232°
2026-04-25 10:37 28.79592 118.43814 32132 ft 394 kts 233°
2026-04-25 10:38 28.75880 118.39217 32136 ft 394 kts 233°
2026-04-25 10:38 28.72172 118.34609 32144 ft 396 kts 233°
2026-04-25 10:39 28.68443 118.29977 32132 ft 397 kts 233°
2026-04-25 10:39 28.64726 118.25386 32133 ft 397 kts 233°
2026-04-25 10:40 28.60986 118.20777 32112 ft 396 kts 233°
2026-04-25 10:40 28.57254 118.16178 32125 ft 395 kts 233°
2026-04-25 10:41 28.53526 118.11587 32129 ft 395 kts 233°
2026-04-25 10:41 28.49800 118.06998 32137 ft 395 kts 233°
2026-04-25 10:42 28.46065 118.02400 32117 ft 397 kts 233°
2026-04-25 10:42 28.42921 117.98546 32097 ft 397 kts 233°
2026-04-25 10:43 28.35188 117.89303 32138 ft 398 kts 232°
2026-04-25 10:44 28.31332 117.84794 32137 ft 398 kts 232°
2026-04-25 10:44 28.27495 117.80275 32134 ft 397 kts 232°
2026-04-25 10:45 28.23664 117.75756 32138 ft 397 kts 232°
2026-04-25 10:45 28.19829 117.71239 32134 ft 397 kts 232°
2026-04-25 10:46 28.15988 117.66729 32143 ft 398 kts 232°
2026-04-25 10:46 28.12149 117.62218 32143 ft 398 kts 232°
2026-04-25 10:47 28.08305 117.57709 32136 ft 398 kts 232°
2026-04-25 10:47 28.04454 117.53206 32133 ft 398 kts 232°
2026-04-25 10:48 28.00626 117.48731 32138 ft 392 kts 233°
2026-04-25 10:48 27.96855 117.44320 32147 ft 394 kts 232°
2026-04-25 10:49 27.93044 117.39855 32149 ft 395 kts 233°
2026-04-25 10:49 27.89143 117.35300 32152 ft 395 kts 232°
2026-04-25 10:50 27.85317 117.30853 32148 ft 393 kts 232°
2026-04-25 10:50 27.81484 117.26393 32151 ft 398 kts 232°
2026-04-25 10:51 27.77649 117.21939 32157 ft 391 kts 233°
2026-04-25 10:51 27.73870 117.17546 32140 ft 390 kts 232°
2026-04-25 10:52 27.70085 117.13140 32147 ft 394 kts 233°
2026-04-25 10:52 27.66266 117.08703 32154 ft 395 kts 232°
2026-04-25 10:53 27.62437 117.04267 32143 ft 395 kts 232°
2026-04-25 10:53 27.58616 116.99843 32110 ft 392 kts 233°
2026-04-25 10:54 27.54810 116.95442 32148 ft 391 kts 233°
2026-04-25 10:54 27.51016 116.91069 32157 ft 390 kts 233°
2026-04-25 10:55 27.47255 116.86681 32161 ft 389 kts 233°
2026-04-25 10:55 27.43533 116.82310 32130 ft 390 kts 233°
2026-04-25 10:56 27.39773 116.77900 32125 ft 391 kts 233°
2026-04-25 10:56 27.35997 116.73487 32125 ft 391 kts 233°
2026-04-25 10:57 27.32223 116.69090 32144 ft 390 kts 233°
2026-04-25 10:57 27.28460 116.64703 32148 ft 389 kts 233°
2026-04-25 10:58 27.24700 116.60328 32147 ft 389 kts 233°
2026-04-25 10:58 27.20935 116.55964 32149 ft 389 kts 233°
2026-04-25 10:59 27.17220 116.51540 32130 ft 390 kts 234°
2026-04-25 10:59 27.13555 116.47052 32133 ft 391 kts 234°
2026-04-25 11:00 27.09873 116.42557 32148 ft 391 kts 234°
2026-04-25 11:00 27.06179 116.38083 32149 ft 391 kts 234°
2026-04-25 11:01 27.02479 116.33619 32155 ft 390 kts 234°
2026-04-25 11:01 26.98782 116.29163 32154 ft 390 kts 234°
2026-04-25 11:02 26.95080 116.24713 32147 ft 390 kts 234°
2026-04-25 11:02 26.91373 116.20249 32128 ft 392 kts 234°
2026-04-25 11:03 26.87677 116.15754 32134 ft 392 kts 234°
2026-04-25 11:03 26.84015 116.11283 32136 ft 392 kts 234°
2026-04-25 11:04 26.80325 116.06795 32134 ft 392 kts 234°
2026-04-25 11:04 26.76632 116.02310 32134 ft 392 kts 234°
2026-04-25 11:05 26.72938 115.97829 32138 ft 392 kts 234°
2026-04-25 11:05 26.69229 115.93325 32127 ft 395 kts 234°
2026-04-25 11:06 26.65498 115.88797 32132 ft 396 kts 234°
2026-04-25 11:06 26.61760 115.84275 32130 ft 396 kts 234°
2026-04-25 11:07 26.58017 115.79752 32132 ft 396 kts 234°
2026-04-25 11:07 26.54273 115.75240 32132 ft 396 kts 234°
2026-04-25 11:08 26.50545 115.70752 32149 ft 395 kts 234°
2026-04-25 11:08 26.46783 115.66217 32145 ft 398 kts 234°
2026-04-25 11:09 26.43019 115.61687 32145 ft 400 kts 234°
2026-04-25 11:09 26.39218 115.57102 32145 ft 402 kts 234°
2026-04-25 11:10 26.35418 115.52534 32147 ft 401 kts 234°
2026-04-25 11:10 26.31625 115.47981 32145 ft 401 kts 234°
2026-04-25 11:11 26.27823 115.43434 32145 ft 401 kts 233°
2026-04-25 11:11 26.24007 115.38869 32140 ft 405 kts 234°
2026-04-25 11:12 26.20174 115.34286 32153 ft 404 kts 234°
2026-04-25 11:12 26.16348 115.29707 32133 ft 404 kts 234°
2026-04-25 11:13 26.12515 115.25129 32144 ft 404 kts 234°
2026-04-25 11:13 26.09322 115.21328 32139 ft 404 kts 234°
2026-04-25 11:14 26.05481 115.16758 32132 ft 404 kts 234°
2026-04-25 11:14 26.01640 115.12189 32123 ft 404 kts 234°
2026-04-25 11:15 25.97799 115.07619 32126 ft 404 kts 234°
2026-04-25 11:15 25.93957 115.03048 32132 ft 405 kts 234°
2026-04-25 11:16 25.88181 114.96195 32133 ft 405 kts 234°
2026-04-25 11:16 25.84325 114.91627 32128 ft 405 kts 234°
2026-04-25 11:17 25.79777 114.87750 32124 ft 428 kts 215°
2026-04-25 11:17 25.76957 114.86542 32127 ft 442 kts 204°
2026-04-25 11:17 25.73941 114.85769 32126 ft 446 kts 202°
2026-04-25 11:18 25.67912 114.84284 32129 ft 447 kts 202°
2026-04-25 11:18 25.61846 114.82784 32129 ft 447 kts 202°
2026-04-25 11:19 25.55786 114.81281 32131 ft 447 kts 202°
2026-04-25 11:19 25.49722 114.79773 32120 ft 447 kts 201°
2026-04-25 11:20 25.43652 114.78267 32126 ft 447 kts 201°
2026-04-25 11:20 25.37581 114.76768 32132 ft 447 kts 201°
2026-04-25 11:21 25.31509 114.75271 32134 ft 447 kts 201°
2026-04-25 11:21 25.25440 114.73771 32099 ft 447 kts 201°
2026-04-25 11:22 25.20402 114.72529 32110 ft 446 kts 201°
2026-04-25 11:22 25.13316 114.70788 32118 ft 446 kts 201°
2026-04-25 11:23 25.07257 114.69302 32128 ft 446 kts 201°
2026-04-25 11:23 25.01199 114.67811 32135 ft 446 kts 201°
2026-04-25 11:24 24.95143 114.66322 32117 ft 446 kts 200°
2026-04-25 11:24 24.89083 114.64833 32122 ft 446 kts 200°
2026-04-25 11:25 24.83056 114.63358 32131 ft 446 kts 200°
2026-04-25 11:25 24.76987 114.61865 31866 ft 447 kts 200°
2026-04-25 11:26 24.73947 114.61120 31621 ft 448 kts 200°
2026-04-25 11:26 24.70934 114.60259 31348 ft 445 kts 206°
2026-04-25 11:26 24.68114 114.58926 31105 ft 438 kts 214°
2026-04-25 11:26 24.65477 114.57264 30875 ft 438 kts 216°
2026-04-25 11:27 24.62835 114.55585 30635 ft 439 kts 216°
2026-04-25 11:27 24.60182 114.53907 30401 ft 441 kts 216°
2026-04-25 11:27 24.57512 114.52226 30168 ft 443 kts 216°
2026-04-25 11:27 24.55705 114.51090 29991 ft 443 kts 216°
2026-04-25 11:28 24.52153 114.48857 29623 ft 445 kts 216°
2026-04-25 11:28 24.49465 114.47166 29350 ft 445 kts 216°
2026-04-25 11:28 24.46781 114.45473 29053 ft 445 kts 216°
2026-04-25 11:28 24.44093 114.43775 28776 ft 446 kts 215°
2026-04-25 11:29 24.41408 114.42085 28526 ft 444 kts 215°
2026-04-25 11:29 24.38728 114.40398 28260 ft 443 kts 215°
2026-04-25 11:29 24.36058 114.38724 28003 ft 441 kts 215°
2026-04-25 11:29 24.33393 114.37059 27729 ft 441 kts 215°
2026-04-25 11:30 24.30732 114.35396 27476 ft 440 kts 215°
2026-04-25 11:30 24.28078 114.33737 27219 ft 438 kts 215°
2026-04-25 11:30 24.25437 114.32087 26977 ft 436 kts 215°
2026-04-25 11:30 24.22807 114.30440 26726 ft 434 kts 215°
2026-04-25 11:31 24.20188 114.28800 26467 ft 433 kts 214°
2026-04-25 11:31 24.17576 114.27166 26221 ft 431 kts 214°
2026-04-25 11:31 24.14974 114.25540 25983 ft 430 kts 214°
2026-04-25 11:31 24.12384 114.23913 25746 ft 427 kts 216°
2026-04-25 11:32 24.10004 114.22021 25504 ft 419 kts 225°
2026-04-25 11:32 24.07978 114.19761 25266 ft 413 kts 234°
2026-04-25 11:32 24.06340 114.17204 25044 ft 408 kts 243°
2026-04-25 11:32 24.05010 114.14472 24814 ft 407 kts 245°
2026-04-25 11:33 24.03696 114.11736 24582 ft 406 kts 245°
2026-04-25 11:33 24.02379 114.09017 24356 ft 404 kts 245°
2026-04-25 11:33 24.01061 114.06307 24136 ft 403 kts 245°
2026-04-25 11:33 23.99745 114.03600 23908 ft 403 kts 245°
2026-04-25 11:34 23.98432 114.00896 23684 ft 402 kts 245°
2026-04-25 11:34 23.97124 113.98199 23418 ft 401 kts 244°
2026-04-25 11:34 23.95817 113.95509 23155 ft 401 kts 244°
2026-04-25 11:34 23.94509 113.92819 22894 ft 400 kts 244°
2026-04-25 11:35 23.93224 113.90173 22639 ft 399 kts 244°
2026-04-25 11:35 23.91926 113.87499 22378 ft 397 kts 244°
2026-04-25 11:35 23.90632 113.84834 22120 ft 396 kts 245°
2026-04-25 11:35 23.89340 113.82177 21871 ft 396 kts 245°
2026-04-25 11:36 23.88049 113.79526 21617 ft 394 kts 245°
2026-04-25 11:36 23.86765 113.76886 21368 ft 393 kts 245°
2026-04-25 11:36 23.85485 113.74256 21117 ft 392 kts 245°
2026-04-25 11:36 23.84203 113.71625 20875 ft 392 kts 245°
2026-04-25 11:37 23.82925 113.69005 20630 ft 391 kts 245°
2026-04-25 11:37 23.81648 113.66385 20387 ft 390 kts 245°
2026-04-25 11:37 23.80226 113.63861 20140 ft 392 kts 236°
2026-04-25 11:37 23.78387 113.61652 19905 ft 397 kts 226°
2026-04-25 11:38 23.76162 113.59844 19679 ft 401 kts 216°
2026-04-25 11:38 23.73794 113.58241 19429 ft 400 kts 216°
2026-04-25 11:38 23.71439 113.56649 19155 ft 396 kts 216°
2026-04-25 11:38 23.69116 113.55078 18708 ft 391 kts 216°
2026-04-25 11:39 23.66808 113.53514 18169 ft 389 kts 216°
2026-04-25 11:39 23.64520 113.51960 17633 ft 387 kts 217°
2026-04-25 11:39 23.62245 113.50414 17103 ft 384 kts 216°
2026-04-25 11:39 23.59933 113.48963 16597 ft 384 kts 209°
2026-04-25 11:40 23.57420 113.47950 16080 ft 387 kts 199°
2026-04-25 11:40 23.54809 113.47243 15570 ft 387 kts 198°
2026-04-25 11:40 23.52201 113.46541 15039 ft 386 kts 197°
2026-04-25 11:40 23.49594 113.45837 14510 ft 386 kts 197°
2026-04-25 11:41 23.46989 113.45130 13966 ft 386 kts 197°
2026-04-25 11:41 23.44386 113.44419 13390 ft 385 kts 197°
2026-04-25 11:41 23.41794 113.43712 12837 ft 383 kts 197°
2026-04-25 11:41 23.39216 113.43011 12271 ft 381 kts 196°
2026-04-25 11:42 23.36686 113.42323 11728 ft 379 kts 196°
2026-04-25 11:42 23.34130 113.41628 11162 ft 377 kts 195°
2026-04-25 11:42 23.31595 113.40944 10714 ft 372 kts 195°
2026-04-25 11:42 23.29132 113.40280 10594 ft 357 kts 195°
2026-04-25 11:43 23.26762 113.39643 10475 ft 344 kts 195°
2026-04-25 11:43 23.24481 113.39028 10356 ft 332 kts 195°